Showing default

QIANFAN-52, 62253

Orbit data source: Space-Track

QIANFAN-52, 62253 is a Chinese payload satellite in LEO that was launched on Thu, 05 Dec 2024 UTC via a CHANG ZHENG 6A launch vehicle from the Taiyaun Space Center, China (TSC). Payload-class satellites include a variety of spacecraft equipped with specific instruments for various scientific and technological missions. These include communications satellites like Starlink; space stations such as the ISS; scientific satellites like the Hubble; Earth observation satellites from companies like Planet Labs, Umbra, and HawkEye 360; GPS; miniature CubeSats for education and research; and military/defense satellites.

Loading next visibility...
Identifier
62253, 2024-232S
Orbit
LEO
Country
Flag of CNCN / PRC
Related business
Manufacturer
SECM
Mission
Operational Commercial Communications
Bus & Motor
QIANFAN, Unknown motor
Mass
267 kg wet, ~267 kg dry
Launch date (UTC)
2024-12-05 (2 years ago)
Launch vehicle
CHANG ZHENG 6A
Launch site
Taiyaun Space Center, China (TSC)
Object type
Payload
Rocket body
Debris
Shape & HBR
Box + 1 Pan, 5.0 m
Radar Cross Section
13.200 m², Large (>1 m²)

Expand to show TLE details & history
Last TLE update: 12 hours ago

TLE from 12 hours ago
0 QIANFAN-52
1 62253U 24232S   26171.33119922  .00000051  00000-0  60787-4 0  9996
2 62253  89.0072  22.0544 0015772  12.1681 347.9847 13.51011523 93549
Epoch: 2026-06-20T07:56Z
TLE epoch observation values (Epoch: 2026-06-20T07:56:55.612Z)
Latitude
-0.00013°
Longitude
-5.72468°
Altitude
1,060.003 km
Speed
7.328 km/s
True Right ascension
01h 28m 13s
True Declination
0° 00' 00"
Sunlit
Object was in daylight at epoch
Visualization orbit readout
Latitude
Unknown
Longitude
Unknown
Altitude
Unknown
Speed
Unknown
Apparent Right ascension
Unknown
Apparent Declination
Unknown
Sunlit
N/A
Visualization observer readout
Local Sidereal Time
07:21:32
Azimuth
Unknown
Elevation
Unknown
Doppler factor
Unknown
Orbital elements
Apogee altitude
1,077.33 km
Perigee altitude
1,053.85 km
Semi-major axis
7,443.727 km
Eccentricity
0.00158
Inclination
89.0072°
RAAN
22.0544°
Arg. of periapsis
12.1681°
True anomaly
347.947°
Mean anomaly
347.9847°
Eccentric anomaly
347.96586°
Mean motion
3.37954 °/min
Orbital period
106.52 mins
BSTAR
0.000060787
Loading maneuver chart data...
Computing Atmospheric mass density...
Loading historical data...
Loading historical data...
Loading historical data...
Loading historical data...
Loading historical data...
Loading historical data...
Loading historical data...

Documentation

Showing up to 5 results
|